SCP
0 0 0 0 0 0 0 0 0 0 0 0 0 0 0 0 0 0 0 0 0 0 0 0 0 0 0 0 0 0 0 0 0 0 0 0 0 0
0 0 0 0 0 0 0 0 0 0 0 0 0 0 0 0 0 0 0 0 0 0 0 0 0 0 0 0 0 0 0 0 0 0 0 0 0 0
0 0 0 0 0 0 0 0 0 0 0 0 0 0 -0 -0 0 0 0 0 0 0 0 0 0 0 0 0 0 0 0 0 0 0 0 0 0 0
0 0 0 0 0 0 0 0 0 0 0 0 0 0 -0 -0 0 0 0 0 0 0 0 0 0 0 0 0 0 0 0 0 0 0 0 0 0 0
0 0 0 0 0 0 0 0 0 0 0 0 0 0 -0 -0 0 0 0 0 0 0 0 0 0 0 0 0 0 0 0 0 0 0 0 0 0 0
0 0 0 0 0 0 0 0 0 0 0 0 0 0 -0 -0 0 0 0 0 0 0 0 0 0 0 0 0 0 0 0 0 0 0 0 0 0 0
0 0 0 0 0 0 0 0 0 0 0 0 0 0 0 0 0 0 0 0 0 -0 -0 0 0 0 0 0 0 0 0 0 0 0 0 0 0 0
0 0 0 0 0 0 0 0 0 0 0 0 0 0 0 0 0 0 0 0 0 0 -0 0 0 0 0 0 0 0 0 0 0 0 0 0 0 0
0 0 0 0 0 0 0 0 0 0 0 0 0 0 0 0 0 0 0 0 0 0 0 0 0 0 0 0 0 0 0 0 0 0 0 0 0 0
0 0 0 0 0 0 0 0 0 0 0 0 0 0 0 0 0 0 0 0 0 0 0 0 0 0 0 0 0 0 0 0 0 0 0 0 0 0
0 0 0 0 0 0 0 0 0 0 0 0 0 0 0 0 0 0 0 0 0 0 0 0 0 0 0 0 0 0 0 0 0 0 0 0 0 0
0 0 0 0 0 0 0 0 0 0 0 0 0 0 0 0 0 0 0 0 0 0 0 0 0 0 -0 -0 0 0 0 0 0 0 0 0 0 0
0 0 0 0 0 0 0 0 0 0 0 0 0 0 0 0 0 0 0 0 0 0 0 0 0 0 0 -0 -0 0 0 0 0 0 0 0 0 0
0 0 0 0 0 0 0 0 0 0 0 0 0 0 0 0 0 0 0 0 0 0 0 0 0 0 0 0 0 0 0 0 0 0 0 0 0 0
0 0 0 0 0 0 0 0 0 0 0 0 0 0 0 0 0 0 0 0 0 0 0 0 0 0 0 0 0 0 0 0 0 0 0 0 0 0
0 0 0 0 0 0 0 0 0 0 0 0 0 0 0 0 0 0 0 0 0 0 0 0 0 0 0 0 0 0 0 0 0 0 0 0 0 0
0 0 0 0 0 0 0 0 0 0 0 0 0 0 0 0 0 0 0 0 0 0 0 0 0 0 0 0 0 0 0 0 0 0 0 0 0 0
0 0 0 0 0 0 0 0 0 0 0 0 0 0 0 0 0 0 0 0 0 0 0 0 0 0 0 0 0 0 0 0 0 0 0 0 0 0
0 0 0 0 0 0 0 0 0 0 0 0 0 0 0 0 0 0 0 0 0 0 0 0 0 0 0 0 0 0 0 0 0 0 0 0 0 0
0 0 0 0 0 0 0 0 0 0 0 0 0 0 0 0 0 0 0 0 0 0 0 0 0 0 0 0 0 0 0 0 0 0 0 0 0 0
0 0 0 0 0 0 0 0 0 0 0 0 0 0 0 0 0 0 0 0 0 0 0 0 0 0 0 0 0 -0 -0 -0 0 0 0 0 0 0
0 0 0 0 0 0 0 0 0 0 0 0 0 0 0 0 0 0 0 0 0 0 0 0 0 0 0 0 0 -0 -0 -0 0 0 0 0 0 0
0 0 0 0 0 0 0 0 0 0 0 0 0 0 0 0 0 0 0 0 0 0 0 0 0 0 0 0 0 -0 -0 0 0 0 0 0 0 0
Wind_Speed
4 4 3 3 3 3 2 3 3 3 4 3 2 2 2 2 4 3 3 4 6 5 5 5 4 4 4 4 4 4 5 6 6 7 7 8 8 9
3 4 4 3 3 3 2 2 3 3 4 3 3 2 2 3 5 4 4 6 6 6 6 5 5 5 5 5 4 5 5 6 6 7 8 9 8 8
4 4 5 4 3 3 3 3 2 3 5 4 3 2 3 3 3 3 4 4 4 6 6 6 6 7 6 6 6 5 5 6 6 7 7 8 9 9
5 4 5 4 4 4 3 4 3 3 4 5 3 3 4 4 4 4 4 4 3 6 7 7 8 8 7 7 7 6 6 6 6 7 7 7 9 10
5 5 5 5 5 4 4 4 4 3 3 4 5 3 3 3 3 4 4 3 4 5 6 8 8 9 9 8 8 7 7 7 7 7 8 7 8 9
6 6 6 6 6 6 5 6 4 4 4 4 4 4 3 3 3 3 3 3 3 3 5 6 7 8 9 10 9 8 7 8 9 9 9 8 8 8
6 6 6 7 8 7 6 6 5 5 4 4 5 4 4 3 4 4 4 3 4 3 4 4 4 4 5 7 9 9 9 9 10 10 10 9 9 9
7 6 7 8 9 10 10 10 8 7 7 6 5 6 7 5 5 4 4 4 5 3 3 4 3 4 4 4 7 9 9 9 9 10 10 10 10 10
7 6 6 6 8 7 8 10 10 11 12 9 9 9 8 7 6 7 6 6 6 3 3 5 3 5 5 5 8 9 10 10 9 10 10 10 10 10
7 7 7 7 7 7 7 8 8 9 10 9 10 10 9 8 8 8 7 6 5 3 3 5 4 5 5 4 8 9 10 9 10 10 11 10 10 10
7 7 8 8 10 11 8 8 8 8 10 12 13 12 12 12 9 5 5 5 6 5 3 4 4 4 4 4 5 8 9 10 10 10 10 10 10 10
6 7 9 9 10 11 8 8 9 8 6 6 7 8 8 9 10 9 7 6 5 5 4 4 3 2 3 3 3 3 5 8 9 9 9 10 9 6
5 5 6 9 10 11 9 8 9 7 6 6 6 6 6 6 6 6 7 7 7 6 4 4 3 3 4 3 2 3 3 3 4 5 7 9 9 7
6 5 6 9 11 11 9 9 10 8 5 5 5 6 6 5 5 5 6 6 6 7 5 5 4 4 4 4 4 3 3 3 3 4 4 6 8 9
6 9 10 10 10 8 9 9 7 5 4 5 6 6 5 5 4 4 4 4 4 5 5 6 5 4 5 5 4 4 3 3 3 3 3 4 4 4
5 7 9 9 8 8 7 5 5 5 5 6 5 5 4 4 5 4 4 4 4 4 4 5 6 6 5 6 5 5 4 4 3 3 4 4 4 4
4 3 3 4 4 4 4 4 4 4 5 5 5 5 4 5 5 4 4 4 5 5 4 3 3 3 5 5 5 6 5 4 4 4 3 5 5 5
4 4 4 4 4 4 4 4 4 4 4 4 4 5 5 5 5 4 4 5 5 5 5 4 3 2 2 4 7 7 5 5 4 4 4 5 6 5
3 4 4 4 4 4 4 5 5 4 4 4 5 5 5 5 5 5 5 5 5 5 5 4 4 4 5 6 5 7 5 4 4 4 4 5 6 6
3 4 4 4 4 4 5 5 5 4 4 4 5 5 5 5 5 5 5 6 5 5 5 4 5 5 6 6 4 4 7 5 4 5 4 3 4 6
3 4 4 4 4 4 5 5 5 5 4 4 5 5 5 5 5 5 5 7 6 5 6 6 6 6 2 2 3 3 3 6 6 5 3 3 4 3
3 4 4 4 4 4 4 4 4 4 4 4 4 4 4 5 5 6 5 5 5 5 5 4 3 3 3 5 5 4 3 3 4 6 6 6 4 4
3 3 3 4 4 4 4 4 5 4 4 4 4 4 4 4 4 5 5 5 4 4 4 3 3 3 4 4 4 4 4 4 2 2 3 6 8 10
Wind_Direction
251 249 246 250 253 258 247 221 220 244 260 240 233 223 223 225 249 250 247 280 289 291 294 291 287 294 267 250 258 240 234 236 233 230 234 237 237 241
258 250 249 250 247 251 239 241 233 234 257 252 248 250 247 262 263 258 249 269 272 274 276 279 276 277 271 255 258 251 239 240 241 238 239 243 242 244
266 259 251 249 245 247 237 233 239 233 255 273 269 247 238 246 258 254 246 240 247 259 263 267 268 265 267 260 250 255 252 241 239 241 246 244 243 246
256 260 259 252 249 246 235 236 241 239 243 265 270 253 246 240 246 253 254 253 243 253 255 257 258 259 261 264 252 245 251 249 241 241 243 247 247 245
247 249 255 246 245 247 240 235 241 252 245 248 263 260 254 244 253 263 252 249 255 256 252 254 256 256 253 257 255 246 244 249 249 244 244 246 253 252
250 248 249 246 242 241 242 233 235 241 245 244 255 257 254 239 235 249 260 243 254 260 261 258 257 257 254 253 252 248 244 245 246 247 244 244 246 252
253 250 251 255 256 249 250 234 225 229 233 240 246 257 248 231 235 239 248 258 259 241 251 252 249 250 246 248 249 245 242 244 244 245 246 245 245 249
252 254 254 252 257 262 261 253 240 230 228 232 244 242 244 240 243 233 236 247 264 229 233 257 237 251 249 239 248 244 240 245 247 245 245 244 245 248
246 251 259 258 260 253 259 255 249 246 238 233 237 238 240 235 239 238 233 238 252 235 225 260 244 252 252 251 250 252 247 248 253 253 249 248 246 247
244 243 248 252 249 253 252 245 242 242 240 237 235 239 239 232 228 238 238 252 262 239 220 252 250 253 260 251 250 251 251 249 253 256 253 250 250 249
251 248 247 247 255 260 254 248 251 251 252 249 248 249 249 247 241 235 230 231 250 242 212 234 249 263 264 256 250 250 253 254 255 255 254 251 251 248
256 254 254 258 260 258 250 243 246 250 248 250 251 253 246 239 235 224 221 228 242 247 211 210 226 236 272 257 247 245 246 252 255 256 258 256 252 241
258 255 256 268 268 266 265 250 253 257 246 242 243 241 238 233 229 229 225 224 231 241 206 191 211 218 237 264 267 257 244 244 245 253 260 260 254 242
258 259 259 266 269 270 270 267 270 270 252 245 243 241 236 233 232 232 234 236 239 240 214 200 216 217 226 252 261 260 252 241 241 248 249 262 257 256
257 266 274 273 276 272 271 269 264 253 240 242 247 247 242 234 231 231 235 236 245 245 227 219 216 218 223 237 246 250 260 255 238 241 249 251 250 248
265 268 276 278 276 273 269 258 247 242 241 243 248 250 241 230 228 225 227 223 232 245 239 229 220 216 231 239 239 248 237 239 240 244 254 260 259 247
271 265 258 258 256 257 257 251 244 242 249 249 245 242 236 234 234 227 224 227 231 233 236 232 228 228 232 231 239 242 237 239 240 239 251 265 261 249
271 255 256 257 258 259 258 261 253 245 246 248 246 244 238 233 235 229 222 223 225 228 227 218 201 220 248 254 233 239 236 235 240 239 234 254 267 260
263 253 255 254 255 255 257 257 257 250 245 246 245 244 243 236 227 224 224 223 226 227 223 212 207 208 228 249 250 226 227 230 238 246 236 240 257 262
257 257 261 261 259 257 257 259 258 252 244 244 244 244 241 234 229 226 225 225 225 224 224 218 215 215 220 233 244 245 225 224 229 246 251 253 258 266
268 267 265 264 265 264 260 257 256 253 250 248 243 241 236 228 227 226 226 229 229 222 224 229 229 225 214 197 239 253 248 236 237 239 239 248 259 260
270 267 268 267 266 265 265 261 261 260 253 248 245 241 234 225 224 224 222 223 228 229 231 231 208 199 201 216 232 242 255 272 267 266 259 245 237 236
281 277 271 269 269 270 268 266 266 264 256 249 246 245 238 227 221 221 221 222 220 221 225 222 216 214 219 220 227 236 243 251 262 279 278 275 268 266